GW1724 Weather Reports


Display with metric or nautical units.
time (UTC)temp
F
wind
direction
speed
MPH
gust
MPH
rain 1hr
in
rain 24hr
in
rain mn
in
humidity
%
barometer
mb
20260504234535 70 276 1.0 7.0 0.00 0.00 0.00 40 1011.2
20260504233035 72 0 0.0 1.0 0.00 0.00 0.00 39 1011.0
20260504231539 73 0 0.0 3.0 0.00 0.00 0.00 37 1011.1
20260504230048 74 230 1.0 6.0 0.00 0.00 0.00 35 1011.1
20260504224536 75 265 3.0 8.0 0.00 0.00 0.00 33 1011.0
20260504223036 76 260 2.0 8.0 0.00 0.00 0.00 33 1011.0
20260504221549 76 254 4.0 11.0 0.00 0.00 0.00 32 1011.1
20260504220040 76 225 5.0 11.0 0.00 0.00 0.00 32 1011.3
20260504214537 76 321 3.0 11.0 0.00 0.00 0.00 32 1011.3
20260504213043 76 242 3.0 10.0 0.00 0.00 0.00 31 1011.3
20260504211538 76 257 7.0 19.0 0.00 0.00 0.00 30 1011.4
20260504210047 76 252 3.0 11.0 0.00 0.00 0.00 31 1011.3
20260504204541 76 230 3.0 12.0 0.00 0.00 0.00 31 1011.4
20260504203042 77 263 6.0 12.0 0.00 0.00 0.00 29 1011.3
20260504201537 77 267 4.0 13.0 0.00 0.00 0.00 29 1011.4
20260504200036 76 269 5.0 10.0 0.00 0.00 0.00 30 1011.6
20260504194543 75 269 4.0 13.0 0.00 0.00 0.00 29 1011.8
20260504193041 77 257 5.0 16.0 0.00 0.00 0.00 29 1012.0
20260504191541 76 240 5.0 12.0 0.00 0.00 0.00 27 1012.1
20260504190038 76 303 4.0 13.0 0.00 0.00 0.00 27 1012.2
20260504184536 75 221 7.0 16.0 0.00 0.00 0.00 29 1012.7
20260504183034 76 290 6.0 12.0 0.00 0.00 0.00 28 1012.7
20260504181542 75 288 5.0 12.0 0.00 0.00 0.00 29 1013.1
20260504180041 74 234 3.0 12.0 0.00 0.00 0.00 30 1013.2
20260504174536 74 228 5.0 16.0 0.00 0.00 0.00 29 1013.4
20260504173045 74 273 3.0 9.0 0.00 0.00 0.00 31 1013.5
20260504171535 73 296 6.0 14.0 0.00 0.00 0.00 31 1013.8
20260504081537 50 260 0.0 3.0 0.00 0.00 0.00 73 1016.3
20260504044537 45 0 0.0 0.0 0.00 0.00 0.00 74 1016.6
20260504043035 44 0 0.0 0.0 0.00 0.00 0.00 76 1016.5
20260504041534 44 0 0.0 0.0 0.00 0.00 0.00 75 1016.5
20260504040049 44 0 0.0 0.0 0.00 0.00 0.00 77 1016.3
20260504034542 44 0 0.0 0.0 0.00 0.00 0.00 75 1016.4
20260504033038 44 0 0.0 0.0 0.00 0.00 0.00 74 1016.3
20260504031543 44 0 0.0 0.0 0.00 0.00 0.00 74 1016.2
20260504030036 45 0 0.0 0.0 0.00 0.00 0.00 72 1016.2
20260504024547 45 0 0.0 0.0 0.00 0.00 0.00 74 1016.3
20260504023038 45 0 0.0 0.0 0.00 0.00 0.00 73 1016.3
20260504021536 46 0 0.0 0.0 0.00 0.00 0.00 71 1016.2
20260504020041 47 0 0.0 0.0 0.00 0.00 0.00 68 1016.2
20260504014536 47 0 0.0 0.0 0.00 0.00 0.00 67 1016.0
20260504013037 48 0 0.0 0.0 0.00 0.00 0.00 62 1016.1
20260504011537 49 0 0.0 0.0 0.00 0.00 0.00 61 1015.9
20260504010036 50 0 0.0 0.0 0.00 0.00 0.00 60 1015.9
20260504004544 51 0 0.0 0.0 0.00 0.00 0.00 56 1015.7
20260504003043 52 0 0.0 0.0 0.00 0.00 0.00 50 1015.7
20260504001541 54 0 0.0 0.0 0.00 0.00 0.00 49 1015.4
20260504000106 55 0 0.0 0.0 0.00 0.00 0.00 46 1015.3